User: anonymous   Login
Location: Unspecified
(0.0000°N, 0.0000°E)
Time: 19:58:17
(UTC+00:00)
Language:

COSMOS 2483 - Orbit

View from above orbital plane
View from above orbital plane
View from above satellite
View from above satellite

Ground track
Ground track

The orbit data is extracted from the following two-line orbital elements,

1 39058U 13001B   18171.75857804 +.00000045 +00000-0 +24877-3 0  9992
2 39058 082.5002 233.6336 0014758 271.1416 088.7979 12.43949890246422
Epoch (UTC): 20 June 2018 18:12:21
Eccentricity: 0.0014758
inclination: 82.5002°
perigee height: 1478 km
apogee height: 1501 km
right ascension of ascending node: 233.6336°
argument of perigee: 271.1416°
revolutions per day: 12.43949890
mean anomaly at epoch: 88.7979°
orbit number at epoch: 24642

The dashed part of the orbit path shows where the satellite is in the earth's shadow,  

DLR